Back to catalog

STARLINK-4171

AliveCommunicationsVLEO
NORAD 52878·PAYLOAD·🇺🇸 United States

Launched Jun 17, 2022 from Cape Canaveral Space Force Station

Loading…

Next Passes (next 24 hours)

TLE

FreshSource: CelesTrak SupGP

Epoch: Sep 14, 2026, 14:47 UTC

1 52878C 22062BA  26257.61645833 -.00046965  00000+0 -13877-2 0  2576
2 52878  53.1561 230.8897 0001328  89.9347 238.1841 15.34410931    13

Track STARLINK-4171 in real time with AllMySat

Download on the App Store